Forestdale, MA

3:49 PM EDT on July 23, 2016 (GMT -0400)
Cape Cod Coast Guard Air Station

Weather History for KFMH - February, 2014

Change the Weather History Date:

Tuesday, February 18, 2014

  Actual Average Record
Temperature  
Mean Temperature 21 °F -  
Max Temperature 39 °F 37 °F 57 °F (2008)
Min Temperature 3 °F 21 °F 3 °F (2014)
Degree Days  
Heating Degree Days 44    
Moisture  
Dew Point 21 °F    
Average Humidity 84    
Maximum Humidity 100    
Minimum Humidity 52    
Precipitation  
Precipitation 0.08 in - - ()
Sea Level Pressure  
Sea Level Pressure 30.11 in    
Wind  
Wind Speed 8 mph (SE)    
Max Wind Speed 30 mph    
Max Gust Speed 31 mph    
Visibility 8 miles    
Events Rain , Snow    
Averages and records for this station are not official NWS values.
T = Trace of Precipitation, MM = Missing Value Source: NWS Daily Summary

Daily Weather History Graph

Daily Weather History Graph

Search for Another Location

Airport or City:

Trip Planner

Search our weather history database for the weather conditions in past years. The results will help you decide how hot, cold, wet, or windy it might be!

Date:

Astronomy

Feb. 18, 2014 Rise Set
Actual Time 6:33 AM EST 5:19 PM EST
Civil Twilight 6:05 AM EST 5:47 PM EST
Nautical Twilight 5:32 AM EST 6:20 PM EST
Astronomical Twilight 5:00 AM EST 6:52 PM EST
Moon 9:13 PM EST (2/18) 8:00 AM EST (2/18)
Length of Visible Light 11h 42m
Length of Day
10h 45m
Waning Gibbous, 87% of the Moon is Illuminated
Feb 18
Waning Gibbous
Feb 22
Last Quarter
Mar 1
New
Mar 8
First Quarter
Mar 16
Full

Hourly Weather History & Observations

Time (EST) Temp. Windchill Dew Point Humidity Pressure Visibility Wind Dir Wind Speed Gust Speed Precip Events Conditions
12:15 AM 6.8 °F -0.1 °F -0.4 °F 72% 30.36 in 10.0 mi NNW 3.5 mph - N/A   Scattered Clouds
12:35 AM 6.8 °F -0.1 °F 1.4 °F 79% 30.35 in 10.0 mi North 3.5 mph - N/A   Partly Cloudy
12:55 AM 5.0 °F - -2.2 °F 72% 30.34 in 10.0 mi Calm Calm - N/A   Clear
1:15 AM 3.2 °F - -0.4 °F 85% 30.34 in 10.0 mi Calm Calm - N/A   Clear
1:35 AM 3.2 °F - -0.4 °F 85% 30.35 in 10.0 mi Calm Calm - N/A   Clear
1:55 AM 6.8 °F - 1.4 °F 79% 30.35 in 10.0 mi Calm Calm - N/A   Partly Cloudy
2:15 AM 3.2 °F - -2.2 °F 78% 30.35 in 10.0 mi Calm Calm - N/A   Scattered Clouds
2:35 AM 3.2 °F - -2.2 °F 78% 30.34 in 10.0 mi Calm Calm - N/A   Mostly Cloudy
2:55 AM 3.2 °F - -2.2 °F 78% 30.33 in 10.0 mi Calm Calm - N/A   Mostly Cloudy
3:15 AM 5.0 °F -4.1 °F 1.4 °F 85% 30.32 in 10.0 mi NNE 4.6 mph - N/A   Overcast
3:35 AM 5.0 °F -4.1 °F -0.4 °F 78% 30.34 in 10.0 mi West 4.6 mph - N/A   Overcast
3:55 AM 6.8 °F - 1.4 °F 79% 30.34 in 10.0 mi Calm Calm - N/A   Overcast
4:15 AM 6.8 °F - 1.4 °F 79% 30.34 in 10.0 mi Calm Calm - N/A   Overcast
4:35 AM 8.6 °F - 3.2 °F 79% 30.34 in 10.0 mi Calm Calm - N/A   Overcast
4:55 AM 8.6 °F - 3.2 °F 79% 30.33 in 10.0 mi Calm Calm - N/A   Overcast
5:15 AM - - - N/A% - 10.0 mi North - - N/A   Overcast
5:35 AM 12.2 °F 4.3 °F 6.8 °F 79% 30.33 in 10.0 mi WSW 4.6 mph - N/A   Overcast
5:55 AM 14.0 °F 6.5 °F 8.6 °F 79% 30.32 in 10.0 mi NE 4.6 mph - N/A   Overcast
6:15 AM 14.0 °F - 10.4 °F 86% 30.32 in 10.0 mi Calm Calm - N/A   Overcast
6:35 AM 15.8 °F 8.6 °F 10.4 °F 79% 30.31 in 10.0 mi ENE 4.6 mph - N/A   Overcast
6:55 AM 15.8 °F 7.2 °F 10.4 °F 79% 30.31 in 10.0 mi ENE 5.8 mph - N/A   Overcast
7:15 AM 19.4 °F 12.8 °F 12.2 °F 74% 30.31 in 10.0 mi ENE 4.6 mph - N/A   Mostly Cloudy
7:35 AM 17.6 °F 9.3 °F 14.0 °F 86% 30.28 in 10.0 mi ENE 5.8 mph - N/A   Mostly Cloudy
7:55 AM 21.2 °F 16.4 °F 14.0 °F 74% 30.29 in 10.0 mi East 3.5 mph - N/A   Mostly Cloudy
8:15 AM 23.0 °F 13.9 °F 17.6 °F 80% 30.27 in 10.0 mi East 8.1 mph - N/A   Mostly Cloudy
8:35 AM 24.8 °F 16.1 °F 19.4 °F 80% 30.26 in 10.0 mi ESE 8.1 mph - N/A   Mostly Cloudy
8:55 AM 28.4 °F 18.0 °F 21.2 °F 74% 30.25 in 10.0 mi SE 12.7 mph - N/A   Mostly Cloudy
9:15 AM 30.2 °F 18.9 °F 21.2 °F 69% 30.23 in 10.0 mi ESE 16.1 mph - N/A   Scattered Clouds
9:35 AM 30.2 °F 19.8 °F 21.2 °F 69% 30.24 in 10.0 mi SE 13.8 mph 20.7 mph N/A   Mostly Cloudy
9:55 AM 32.0 °F 22.1 °F 23.0 °F 69% 30.24 in 10.0 mi SE 13.8 mph - N/A   Overcast
10:15 AM 32.0 °F 20.5 °F 23.0 °F 69% 30.21 in 10.0 mi ESE 18.4 mph 25.3 mph N/A   Mostly Cloudy
10:35 AM 32.0 °F 21.6 °F 24.8 °F 75% 30.18 in 10.0 mi SE 15.0 mph 25.3 mph N/A   Scattered Clouds
10:55 AM 32.0 °F 20.5 °F 24.8 °F 75% 30.16 in 10.0 mi SE 18.4 mph 25.3 mph N/A   Mostly Cloudy
11:15 AM 33.8 °F 22.5 °F 24.8 °F 70% 30.15 in 10.0 mi SE 19.6 mph 29.9 mph N/A   Mostly Cloudy
11:35 AM 33.8 °F 22.5 °F 26.6 °F 75% 30.14 in 10.0 mi SE 19.6 mph 26.5 mph N/A   Mostly Cloudy
11:55 AM 33.8 °F 23.9 °F 26.6 °F 75% 30.13 in 10.0 mi SE 15.0 mph 24.2 mph N/A   Mostly Cloudy
12:15 PM 33.8 °F 23.2 °F 28.4 °F 81% 30.11 in 2.0 mi ESE 17.3 mph 26.5 mph N/A Snow Light Snow
12:35 PM 32.0 °F 20.5 °F 30.2 °F 93% 30.10 in 0.5 mi ESE 18.4 mph - N/A Snow Light Snow
12:55 PM 32.0 °F 20.8 °F 30.2 °F 93% 30.08 in 0.8 mi ESE 17.3 mph 25.3 mph N/A Snow Light Snow
1:15 PM 32.0 °F - 32.0 °F 100% 30.05 in 0.5 mi North - - N/A Snow Light Snow
1:35 PM 32.0 °F 20.1 °F 32.0 °F 100% 30.02 in 1.0 mi SE 19.6 mph 27.6 mph N/A Snow Light Snow
1:55 PM 32.0 °F 19.5 °F 32.0 °F 100% 30.00 in 0.8 mi SE 21.9 mph 28.8 mph N/A Snow Light Snow
2:15 PM 32.0 °F 19.2 °F 32.0 °F 100% 29.97 in 0.8 mi SE 23.0 mph 31.1 mph N/A Snow Light Snow
2:35 PM 32.0 °F 19.2 °F 32.0 °F 100% 29.96 in 0.5 mi SE 23.0 mph 31.1 mph N/A Snow Light Snow
2:55 PM 33.8 °F 22.2 °F 32.0 °F 93% 29.96 in 1.0 mi SE 20.7 mph 29.9 mph N/A Snow Light Snow
3:15 PM 33.8 °F 24.3 °F 32.0 °F 93% 29.95 in 2.5 mi SE 13.8 mph 25.3 mph N/A Snow Light Snow
3:35 PM 33.8 °F 23.5 °F 33.8 °F 100% 29.91 in 2.0 mi ESE 16.1 mph 25.3 mph N/A Rain Light Rain
3:55 PM 33.8 °F 25.8 °F 33.8 °F 100% 29.89 in 3.0 mi East 10.4 mph 18.4 mph N/A Rain Light Rain
4:15 PM 35.6 °F 29.9 °F 33.8 °F 93% 29.87 in 2.5 mi East 6.9 mph - N/A Rain Light Rain
4:35 PM 35.6 °F 26.6 °F 33.8 °F 93% 29.86 in 2.0 mi SE 13.8 mph 21.9 mph N/A Rain Light Rain
4:55 PM 35.6 °F 29.9 °F 35.6 °F 100% 29.84 in 2.5 mi East 6.9 mph - N/A Rain Light Rain
5:15 PM 35.6 °F 31.7 °F 35.6 °F 100% 29.83 in 1.5 mi East 4.6 mph - N/A   Light Drizzle
5:35 PM 35.6 °F - 33.8 °F 93% 29.83 in 5.0 mi Calm Calm - N/A   Mostly Cloudy
5:55 PM 37.4 °F 27.5 °F 35.6 °F 93% 29.83 in 10.0 mi WSW 18.4 mph 25.3 mph N/A   Overcast
6:15 PM 35.6 °F 24.8 °F 35.6 °F 100% 29.85 in 9.0 mi WSW 19.6 mph - N/A   Overcast
6:35 PM 33.8 °F 22.2 °F 33.8 °F 100% 29.86 in 10.0 mi WSW 20.7 mph 26.5 mph N/A   Overcast
6:55 PM 32.0 °F 21.2 °F 32.0 °F 100% 29.88 in 10.0 mi West 16.1 mph - N/A   Overcast
7:15 PM 32.0 °F 21.2 °F 30.2 °F 93% 29.89 in 10.0 mi West 16.1 mph - N/A   Mostly Cloudy
7:35 PM 30.2 °F 18.9 °F 28.4 °F 93% 29.91 in 10.0 mi WSW 16.1 mph - N/A   Mostly Cloudy
7:55 PM 30.2 °F 18.1 °F 28.4 °F 93% 29.92 in 10.0 mi West 18.4 mph 26.5 mph N/A   Overcast
8:15 PM 28.4 °F 17.0 °F 26.6 °F 93% 29.93 in 10.0 mi West 15.0 mph 24.2 mph N/A   Overcast
8:35 PM 30.2 °F 18.9 °F 26.6 °F 86% 29.93 in 10.0 mi West 16.1 mph 21.9 mph N/A   Overcast
8:55 PM 30.2 °F 18.9 °F 26.6 °F 86% 29.94 in 10.0 mi West 16.1 mph - N/A   Overcast
9:15 PM 30.2 °F 18.9 °F 26.6 °F 86% 29.95 in 10.0 mi West 16.1 mph - N/A   Mostly Cloudy
9:35 PM 30.2 °F 18.1 °F 26.6 °F 86% 29.96 in 10.0 mi West 18.4 mph 25.3 mph N/A   Mostly Cloudy
9:55 PM 30.2 °F 19.3 °F 26.6 °F 86% 29.96 in 10.0 mi West 15.0 mph 21.9 mph N/A   Partly Cloudy
10:15 PM 30.2 °F 18.9 °F 26.6 °F 86% 29.98 in 10.0 mi West 16.1 mph - N/A   Clear
10:35 PM 30.2 °F 18.5 °F 26.6 °F 86% 29.99 in 10.0 mi WNW 17.3 mph - N/A   Clear
10:55 PM 30.2 °F 18.1 °F 24.8 °F 80% 30.00 in 10.0 mi West 18.4 mph 25.3 mph N/A   Clear
11:15 PM 30.2 °F 18.1 °F 24.8 °F 80% 30.00 in 10.0 mi WNW 18.4 mph 26.5 mph N/A   Clear
11:35 PM 30.2 °F 18.5 °F 23.0 °F 75% 30.01 in 10.0 mi WNW 17.3 mph 26.5 mph N/A   Clear
11:55 PM 28.4 °F 17.5 °F 23.0 °F 80% 30.00 in 10.0 mi WNW 13.8 mph 23.0 mph N/A   Clear